User: anonymous   Login
Location: Newark
(48.1500°N, 2.9667°W)
Time: 17:11:04
(UTC+00:00)
Language:

SR - Orbit

View from above orbital plane
View from above orbital plane
View from above satellite
View from above satellite

Ground track
Ground track

The orbit data is extracted from the following two-line orbital elements,

1    46U 60007B   20020.19634267 -.00000031  00000-0  17142-4 0  9999
2    46  66.6907  89.8076 0216807 243.3732 114.5022 14.49269878117475
Epoch (UTC): 20 January 2020 04:42:44
Eccentricity: 0.0216807
inclination: 66.6907°
perigee height: 574 km
apogee height: 882 km
right ascension of ascending node: 89.8076°
argument of perigee: 243.3732°
revolutions per day: 14.49269878
mean anomaly at epoch: 114.5022°
orbit number at epoch: 11747

The dashed part of the orbit path shows where the satellite is in the earth's shadow,  

DLR